Location: Brede
(50.9167°N, 0.6000°E)
Time: 23:01:50
(UTC+00:00)

A-11 Canister half - Pass Details

Date: 05 December 2020
Orbit: 1524 x 1684 km, 47.3° (Epoch: 24 January)

Event Time Altitude Azimuth Distance (km) Brightness Sun altitude
Exits shadow 06:44:13 - 261° (W) 4,800 11.1 -8.9°
Reaches altitude 10° 06:46:57 10° 260° (W) 3,947 10.7 -8.6°
Maximum altitude 06:57:03 73° 178° (S) 1,725 9.4 -7.1°
Drops below altitude 10° 07:06:55 10° 96° (E) 3,860 12.4 -5.8°
Sets 07:10:00 0° 95° (E) 4,825 13.0 -5.3°
